Tracking 25372 objects as of 24-Jan-2022
HD Live streaming from Space Station
objects crossing your sky now

COSMOS 1053

Track COSMOS 1053 now!
10-day predictions
COSMOS 1053 is classified as:


NORAD ID: 11130
Int'l Code: 1978-109C
Perigee: 1,436.4 km
Apogee: 1,494.6 km
Inclination: 74.0 °
Period: 115.1 minutes
Semi major axis: 7836 km
RCS: 0.7062 m2 (medium)
Launch date: December 5, 1978
Source: Commonwealth of Independent States (former USSR) (CIS)
Launch site: PLESETSK MISSILE AND SPACE COMPLEX (PKMTR)
aabbcc
Your satellite tracking list
Your tracking list is empty




NASA's NSSDC Master Catalog

Two Line Element Set (TLE):
1 11130U 78109C   22023.88344769 -.00000024  00000-0 -53855-4 0  9997
2 11130  74.0138 228.8468 0037137 160.1011 302.3985 12.51462472970853
Source of the keplerian elements: AFSPC